STARLINK-2140 (47730 NORAD) Tracking and Keplerian Element Data

This shows tracking and keplerian element data for the satellite.

Feedback or suggestion? Click here.




ElementValue
Catalog47730
NameSTARLINK-2140
Epoch Orbit1776
Epoch Day170.3709219
Epoch Year2021
RAAN37.372
Inclination53.0551
Eccentricity0.0002303
Argument of Perigee88.6855
Mean Anonmoly271.4398
Mean Motion15.06396602
Decay Rate-9.01E-06
L11 47730U 21017J 21170.37092190 -.00000901 00000-0 -41580-4 0 9998
L22 47730 53.0551 37.3720 0002303 88.6855 271.4398 15.06396602 17765

Live tracking and technical data element details for STARLINK-2140 (NORAD 47730). STARLINK-2140 can be tracked NOW for your location showing map with azimuth and elevation plus other details from your city location.

Track the satellite on the map from your city or location and see movement details for azimuth, elevation, latitude, longitude, range, height, and movement on the map or in text.







IsCatalogInMostPopularTable: catalog: 47730, numindb: 42
Update: records affected: 1



GetName: 47730 STARLINK-2140

Hit Count: updated at: Mon, 21 Jun 2021 04:29:33 GMT